FW9372 Weather Reports


Display with metric or nautical units.
time (UTC)temp
F
wind
direction
speed
MPH
gust
MPH
rain 1hr
in
rain 24hr
in
rain mn
in
humidity
%
barometer
mb
20260510214556 74 0 0.0 1.0 0.00 0.00 0.00 43 1014.5
20260510213116 75 0 0.0 0.0 0.00 0.00 0.00 45 1014.4
20260510211559 74 0 0.0 1.0 0.00 0.00 0.00 42 1014.4
20260510210058 74 0 0.0 1.0 0.00 0.00 0.00 46 1014.3
20260510204617 74 0 0.0 3.0 0.00 0.00 0.00 47 1014.3
20260510203057 74 0 0.0 3.0 0.00 0.00 0.00 47 1014.2
20260510201601 75 0 0.0 1.0 0.00 0.00 0.00 49 1014.2
20260510200056 75 0 0.0 0.0 0.00 0.00 0.00 50 1014.2
20260510194604 74 0 0.0 7.0 0.00 0.00 0.00 50 1014.2
20260510193100 75 0 0.0 2.0 0.00 0.00 0.00 53 1014.1
20260510191559 75 0 0.0 0.0 0.00 0.00 0.00 57 1014.1
20260510190107 74 0 0.0 0.0 0.00 0.00 0.00 56 1014.1
20260510184608 73 0 0.0 3.0 0.00 0.00 0.00 58 1014.1
20260510183110 73 0 0.0 1.0 0.00 0.00 0.00 58 1014.2
20260510181616 74 0 0.0 2.0 0.00 0.00 0.00 54 1014.3
20260510180106 73 0 0.0 0.0 0.00 0.00 0.00 57 1014.3
20260510174609 72 0 0.0 12.0 0.00 0.00 0.00 60 1014.6
20260510173057 73 0 0.0 1.0 0.00 0.00 0.00 59 1014.6
20260510171626 72 0 0.0 2.0 0.00 0.00 0.00 60 1014.7
20260510170111 72 0 0.0 1.0 0.00 0.00 0.00 58 1014.5
20260510164604 73 0 0.0 3.0 0.00 0.00 0.00 59 1014.6
20260510163110 73 0 0.0 7.0 0.00 0.00 0.00 59 1014.6
20260510161558 72 0 0.0 1.0 0.00 0.00 0.00 60 1014.5
20260510160058 72 0 0.0 1.0 0.00 0.00 0.00 62 1014.2
20260510154601 72 0 0.0 0.0 0.00 0.00 0.00 60 1013.7
20260510153059 71 0 0.0 1.0 0.00 0.00 0.00 64 1013.7
20260510151555 71 0 0.0 0.0 0.00 0.00 0.00 63 1013.9
20260510150059 70 0 0.0 0.0 0.00 0.00 0.00 64 1013.7
20260510144605 69 0 0.0 0.0 0.00 0.00 0.00 64 1013.6
20260510143057 69 0 0.0 0.0 0.00 0.00 0.00 70 1013.8
20260510141556 68 0 0.0 0.0 0.00 0.00 0.00 70 1013.7
20260510140056 67 0 0.0 0.0 0.00 0.00 0.00 71 1013.8
20260510134556 67 0 0.0 0.0 0.00 0.00 0.00 76 1013.5
20260510133055 65 0 0.0 0.0 0.00 0.00 0.00 76 1013.3
20260510131557 64 0 0.0 0.0 0.00 0.00 0.00 77 1013.0
20260510130058 64 0 0.0 2.0 0.00 0.00 0.00 80 1013.0
20260510124601 63 0 0.0 0.0 0.00 0.00 0.00 82 1012.8
20260510123057 61 0 0.0 0.0 0.00 0.00 0.00 86 1012.4
20260510121557 59 0 0.0 0.0 0.00 0.00 0.00 90 1012.2
20260510120057 58 0 0.0 0.0 0.00 0.00 0.00 90 1011.6
20260510114618 57 0 0.0 0.0 0.00 0.00 0.00 88 1011.2
20260510113059 57 0 0.0 0.0 0.00 0.00 0.00 88 1010.9
20260510111557 58 0 0.0 0.0 0.00 0.00 0.00 87 1010.8
20260510104557 59 0 0.0 0.0 0.00 0.00 0.00 84 1010.6
20260510103057 59 0 0.0 0.0 0.00 0.00 0.00 82 1010.5
20260510101603 60 0 0.0 0.0 0.00 0.00 0.00 80 1010.3
20260510100109 60 0 0.0 0.0 0.00 0.00 0.00 79 1010.3
20260510094557 61 0 0.0 0.0 0.00 0.00 0.00 78 1010.3
20260510093057 61 0 0.0 0.0 0.00 0.00 0.00 77 1010.4
20260510091558 60 0 0.0 0.0 0.00 0.00 0.00 79 1010.4
20260510090114 59 0 0.0 0.0 0.00 0.00 0.00 85 1010.4
20260510084610 56 0 0.0 0.0 0.00 0.00 0.00 91 1010.3
20260510083057 53 0 0.0 0.0 0.00 0.00 0.00 93 1010.0
20260510081604 53 0 0.0 0.0 0.00 0.00 0.00 93 1009.7
20260510080104 53 0 0.0 0.0 0.00 0.00 0.00 93 1009.5
20260510074556 54 0 0.0 0.0 0.00 0.00 0.00 92 1009.4
20260510073058 54 0 0.0 0.0 0.00 0.00 0.00 93 1009.4
20260510071602 54 0 0.0 0.0 0.00 0.00 0.00 94 1009.2
20260510070110 53 0 0.0 0.0 0.00 0.00 0.00 93 1009.1
20260510064557 54 0 0.0 0.0 0.00 0.00 0.00 93 1009.1
20260510063057 54 0 0.0 0.0 0.00 0.00 0.00 92 1009.1
20260510061559 55 0 0.0 0.0 0.00 0.00 0.00 92 1009.1
20260510060100 55 0 0.0 0.0 0.00 0.00 0.00 93 1009.2
20260510054601 55 0 0.0 0.0 0.00 0.00 0.00 91 1009.2
20260510053059 55 0 0.0 0.0 0.00 0.00 0.00 92 1009.3
20260510051607 56 0 0.0 0.0 0.00 0.00 0.00 92 1009.6
20260510050108 55 0 0.0 0.0 0.00 0.00 0.00 91 1009.6
20260510044600 56 0 0.0 0.0 0.00 0.00 0.00 92 1009.6
20260510043108 55 0 0.0 0.0 0.00 0.00 0.00 91 1009.5
20260510041611 55 0 0.0 0.0 0.00 0.00 0.00 91 1009.4
20260510040118 56 0 0.0 0.0 0.00 0.00 0.00 90 1009.4
20260510034603 56 0 0.0 0.0 0.00 0.00 0.00 89 1009.4
20260510033106 57 0 0.0 0.0 0.00 0.00 0.00 89 1009.4
20260510031609 57 0 0.0 0.0 0.00 0.00 0.00 89 1009.5
20260510030107 58 0 0.0 0.0 0.00 0.00 0.00 89 1009.6
20260510024600 57 0 0.0 0.0 0.00 0.00 0.00 88 1009.5
20260510023101 58 0 0.0 0.0 0.00 0.00 0.00 86 1009.3
20260510021646 59 0 0.0 0.0 0.00 0.00 0.00 85 1009.2
20260510014600 61 0 0.0 0.0 0.00 0.00 0.00 80 1008.6
20260510013116 62 0 0.0 0.0 0.00 0.00 0.00 81 1008.3
20260510011559 63 0 0.0 0.0 0.00 0.00 0.00 79 1008.1
20260510004601 66 0 0.0 0.0 0.00 0.00 0.00 72 1007.7
20260510003106 67 0 0.0 0.0 0.00 0.00 0.00 69 1007.6
20260510001603 70 0 0.0 0.0 0.00 0.00 0.00 62 1007.4
20260510000058 75 0 0.0 0.0 0.00 0.00 0.00 55 1007.2
20260509234558 76 0 0.0 0.0 0.00 0.00 0.00 53 1007.0
20260509233101 76 0 0.0 0.0 0.00 0.00 0.00 47 1006.9
20260509231603 77 0 0.0 2.0 0.00 0.00 0.00 48 1006.9
20260509230059 77 0 0.0 5.0 0.00 0.00 0.00 46 1006.8
20260509224556 78 0 0.0 2.0 0.00 0.00 0.00 46 1006.8
20260509223057 78 0 0.0 0.0 0.00 0.00 0.00 44 1006.8
20260509221556 77 0 1.0 8.0 0.00 0.00 0.00 46 1006.8